Weather History for Triuchirapalli, India

Change the Weather History Date:

Wednesday, November 21, 2012

  Actual Average Record
Temperature  
Mean Temperature 84 °F -  
Max Temperature 94 °F 82 °F 94 °F (2012)
Min Temperature 74 °F 72 °F 71 °F (2004)
Cooling Degree Days 19    
Growing Degree Days 34 (Base 50)    
Moisture  
Dew Point 73 °F    
Average Humidity 71    
Maximum Humidity 100    
Minimum Humidity 38    
Precipitation  
Precipitation 0.00 in - - ()
Sea Level Pressure  
Sea Level Pressure 29.83 in    
Wind  
Wind Speed 2 mph ()    
Max Wind Speed 7 mph    
Max Gust Speed -    
Visibility 2.2 miles    
Events      
Averages and records for this station are not official NWS values.
T = Trace of Precipitation, MM = Missing Value Source: Averaged Metar Reports

Daily Weather History Graph

Daily Weather History Graph

Search for Another Location

Airport:

Trip Planner

Search our weather history database for the weather conditions in past years. The results will help you decide how hot, cold, wet, or windy it might be!

Date:

Astronomy

Nov. 21, 2012 Rise Set
Actual Time 6:13 AM IST 5:48 PM IST
Civil Twilight 5:50 AM IST 6:11 PM IST
Nautical Twilight 5:25 AM IST 6:37 PM IST
Astronomical Twilight 4:59 AM IST 7:02 PM IST
Moon 12:46 PM IST (11/21) No Moon Set
Length of Visible Light 12h 20m
Length of Day
11h 35m
First Quarter, 57% of the Moon is Illuminated
Nov 21
First Quarter
Nov 28
Full
Dec 6
Last Quarter
Dec 13
New
Dec 20
First Quarter

Hourly Weather History & Observations

Time (IST) Temp. Heat Index Dew Point Humidity Pressure Visibility Wind Dir Wind Speed Gust Speed Precip Events Conditions
12:10 AM 78.8 °F - 73.4 °F 83% 29.86 in 1.9 mi WNW 2.3 mph - N/A   Haze
12:40 AM 78.8 °F - 73.4 °F 83% 29.83 in 1.9 mi Calm Calm - N/A   Haze
1:10 AM 78.8 °F - 73.4 °F 83% 29.83 in 1.9 mi Calm Calm - N/A   Haze
1:40 AM 78.8 °F - 73.4 °F 83% 29.86 in 1.9 mi Calm Calm - N/A   Haze
2:10 AM 78.8 °F - 73.4 °F 83% 29.83 in 1.9 mi Calm Calm - N/A   Haze
2:30 AM 75 °F - 72 °F 87% 29.82 in 2 mi Calm Calm - -   Haze
2:40 AM 75.2 °F - 71.6 °F 89% 29.80 in 1.9 mi Calm Calm - N/A   Haze
3:10 AM 75.2 °F - 71.6 °F 89% 29.80 in 1.9 mi SW 2.3 mph - N/A   Haze
3:40 AM 75.2 °F - 73.4 °F 94% 29.80 in 1.9 mi SSW 4.6 mph - N/A   Haze
4:10 AM 75.2 °F - 73.4 °F 94% 29.80 in 1.9 mi South 2.3 mph - N/A   Haze
4:40 AM 75.2 °F - 73.4 °F 94% 29.80 in 1.6 mi SSE 2.3 mph - N/A   Haze
5:10 AM 73.4 °F - 73.4 °F 100% 29.80 in 1.6 mi South 2.3 mph - N/A   Haze
5:30 AM 76 °F - 71 °F 80% 29.80 in 1 mi Calm Calm - -   Haze
5:40 AM 75.2 °F - 71.6 °F 89% 29.80 in 1.6 mi Calm Calm - N/A   Haze
6:10 AM 77.0 °F - 71.6 °F 83% 29.83 in 1.2 mi West 2.3 mph - N/A   Scattered Clouds
6:40 AM 77.0 °F - 73.4 °F 89% 29.86 in 1.2 mi West 2.3 mph - N/A   Scattered Clouds
7:10 AM 78.8 °F - 73.4 °F 83% 29.86 in 1.2 mi West 3.5 mph - N/A   Scattered Clouds
7:40 AM 80.6 °F 85.4 °F 73.4 °F 79% 29.86 in 1.6 mi West 2.3 mph - N/A   Scattered Clouds
8:10 AM 78.8 °F - 73.4 °F 83% 29.89 in 1.2 mi WSW 3.5 mph - N/A   Partly Cloudy
8:30 AM 80 °F - 73 °F 74% 29.91 in 1 mi NW 4.6 mph - -   Mist
8:40 AM 80.6 °F 85.4 °F 73.4 °F 79% 29.92 in 1.2 mi WNW 4.6 mph - N/A   Partly Cloudy
9:10 AM 80.6 °F 85.4 °F 73.4 °F 79% 29.92 in 1.2 mi NW 3.5 mph - N/A   Partly Cloudy
10:10 AM 82.4 °F 87.2 °F 71.6 °F 70% 29.92 in 1.9 mi WNW 6.9 mph - N/A   Haze
10:40 AM 84.2 °F 89.6 °F 71.6 °F 66% 29.89 in 2.5 mi WNW 5.8 mph - N/A   Haze
11:10 AM 86.0 °F 91.8 °F 71.6 °F 62% 29.89 in 2.5 mi NW 5.8 mph - N/A   Haze
11:40 AM 87.8 °F 93.8 °F 71.6 °F 58% 29.86 in 2.5 mi NW 4.6 mph - N/A   Haze
12:10 PM 89.6 °F 96.2 °F 71.6 °F 55% 29.83 in 3.1 mi NW 4.6 mph - N/A   Haze
12:40 PM 89.6 °F 96.2 °F 71.6 °F 55% 29.83 in 3.1 mi NE 4.6 mph - N/A   Haze
1:10 PM 91.4 °F 98.4 °F 71.6 °F 52% 29.80 in 3.1 mi West 4.6 mph - N/A   Haze
1:40 PM 91.4 °F 98.4 °F 71.6 °F 52% 29.80 in 3.7 mi Calm Calm - N/A   Scattered Clouds
2:10 PM 93.2 °F 100.5 °F 71.6 °F 49% 29.77 in 3.7 mi WNW 5.8 mph - N/A   Scattered Clouds
2:30 PM 93 °F - 70 °F 38% 29.76 in 2 mi NW 2.3 mph - -   Haze
2:40 PM 93.2 °F 100.5 °F 71.6 °F 49% 29.77 in 3.7 mi Variable 2.3 mph - N/A   Scattered Clouds
3:10 PM 93.2 °F 100.5 °F 71.6 °F 49% 29.77 in 3.7 mi WNW 6.9 mph - N/A   Scattered Clouds
3:40 PM 93.2 °F 100.5 °F 71.6 °F 49% 29.74 in 3.7 mi Variable 3.5 mph - N/A   Partly Cloudy
4:10 PM 93.2 °F 102.4 °F 73.4 °F 52% 29.74 in 3.7 mi WSW 2.3 mph - N/A   Partly Cloudy
4:40 PM 91.4 °F 98.4 °F 71.6 °F 52% 29.74 in 3.7 mi West 2.3 mph - N/A   Partly Cloudy
5:30 PM 90 °F - 72 °F 46% 29.75 in 2 mi Calm Calm - -   Haze
5:40 PM 89.6 °F 98.2 °F 73.4 °F 59% 29.77 in 2.5 mi Calm Calm - N/A   Haze
6:10 PM 89.6 °F 98.2 °F 73.4 °F 59% 29.77 in 2.5 mi ESE 3.5 mph - N/A   Haze
6:40 PM 89.6 °F 98.2 °F 73.4 °F 59% 29.77 in 2.5 mi SE 3.5 mph - N/A   Haze
7:10 PM 87.8 °F 95.6 °F 73.4 °F 62% 29.80 in 2.5 mi SE 3.5 mph - N/A   Haze
7:40 PM 86.0 °F 93.4 °F 73.4 °F 66% 29.83 in 2.5 mi SSE 5.8 mph - N/A   Haze
8:10 PM 84.2 °F 92.3 °F 75.2 °F 74% 29.83 in 2.5 mi SSE 5.8 mph - N/A   Haze
8:30 PM 85 °F - 74 °F 61% 29.83 in 2 mi SE 4.6 mph - -   Haze
8:40 PM 84.2 °F 92.3 °F 75.2 °F 74% 29.83 in 2.5 mi SSE 5.8 mph - N/A   Haze
9:10 PM 84.2 °F 92.3 °F 75.2 °F 74% 29.86 in 2.5 mi SSE 3.5 mph - N/A   Haze
9:40 PM 82.4 °F 89.5 °F 75.2 °F 79% 29.86 in 2.5 mi SSE 2.3 mph - N/A   Haze
10:10 PM 82.4 °F 89.5 °F 75.2 °F 79% 29.86 in 2.5 mi South 4.6 mph - N/A   Haze
11:10 PM 80.6 °F 86.2 °F 75.2 °F 84% 29.89 in 1.9 mi East 6.9 mph - N/A   Haze
11:30 PM 81 °F - 73 °F 70% 29.87 in 1 mi ENE 4.6 mph - -   Haze
11:40 PM 80.6 °F 85.4 °F 73.4 °F 79% 29.86 in 1.9 mi ENE 4.6 mph - N/A   Haze